{"data":{"norad_id":56550,"epoch":"2026-09-19T22:03:48.262176Z","epoch_age_seconds":164931,"freshness":"FRESH","line1":"1 56550U 23065AZ  26262.91930859  .00001138  00000+0  50872-4 0  9997","line2":"2 56550  43.0019 206.9719 0001333 272.5444  87.5255 15.27579045186172","mean_motion":15.27579045,"eccentricity":0.0001333,"inclination_deg":43.0019,"raan_deg":206.9719,"arg_perigee_deg":272.5444,"mean_anomaly_deg":87.5255,"bstar":5.0872e-5,"rev_number":18617,"period_min":94.266807646605,"perigee_km":482.13735916691,"apogee_km":483.96655214249,"semimajor_km":6861.1889556547,"source":"CELESTRAK","updated_at":"2026-09-21T09:00:33.478680Z"}}